Time,TemperatureF,DewpointF,PressureIn,WindDirection,WindDirectionDegrees,WindSpeedMPH,WindSpeedGustMPH,Humidity,HourlyPrecipIn,Conditions,Clouds,dailyrainin,SoftwareType,DateUTC
2015-05-04 00:09:00,72.0,64.0,30.10,South,184,0.0,0.0,76,0.00,,,0.00,Wunderground v.1.12,2015-05-04 05:09:00,
2015-05-04 00:14:00,72.0,64.4,30.10,South,184,0.0,0.0,77,0.00,,,0.00,Wunderground v.1.12,2015-05-04 05:14:00,
2015-05-04 00:24:00,71.8,64.2,30.10,South,184,0.0,0.0,77,0.00,,,0.00,Wunderground v.1.12,2015-05-04 05:24:00,
2015-05-04 00:29:00,71.7,64.1,30.10,South,184,0.0,0.0,77,0.00,,,0.00,Wunderground v.1.12,2015-05-04 05:29:00,
2015-05-04 00:34:00,71.8,64.2,30.10,N/A,-737280,0.0,0.0,77,0.00,,,0.00,Wunderground v.1.12,2015-05-04 05:34:00,
2015-05-04 00:44:00,71.4,63.8,30.10,South,184,0.0,0.0,77,0.00,,,0.00,Wunderground v.1.12,2015-05-04 05:44:00,
2015-05-04 00:49:00,71.3,63.7,30.10,N/A,-737280,0.0,0.0,77,0.00,,,0.00,Wunderground v.1.12,2015-05-04 05:49:00,
2015-05-04 00:54:00,70.8,64.0,30.10,South,184,0.0,0.0,79,0.00,,,0.00,Wunderground v.1.12,2015-05-04 05:54:00,
2015-05-04 00:59:00,70.7,63.9,30.10,N/A,-737280,0.0,0.0,79,0.00,,,0.00,Wunderground v.1.12,2015-05-04 05:59:00,
2015-05-04 01:09:00,69.6,63.5,30.09,South,184,0.0,0.0,81,0.00,,,0.00,Wunderground v.1.12,2015-05-04 06:09:00,
2015-05-04 01:14:00,69.4,63.7,30.09,South,184,0.0,0.0,82,0.00,,,0.00,Wunderground v.1.12,2015-05-04 06:14:00,
2015-05-04 01:19:00,69.0,63.6,30.09,South,184,0.0,0.0,83,0.00,,,0.00,Wunderground v.1.12,2015-05-04 06:19:00,
2015-05-04 01:24:00,68.6,63.2,30.09,South,184,0.0,0.0,83,0.00,,,0.00,Wunderground v.1.12,2015-05-04 06:24:00,
2015-05-04 01:29:00,68.4,63.4,30.09,South,184,0.0,0.0,84,0.00,,,0.00,Wunderground v.1.12,2015-05-04 06:29:00,
2015-05-04 01:39:00,68.0,63.0,30.09,South,184,0.0,0.0,84,0.00,,,0.00,Wunderground v.1.12,2015-05-04 06:39:00,
2015-05-04 01:44:00,67.9,62.9,30.09,South,184,0.0,0.0,84,0.00,,,0.00,Wunderground v.1.12,2015-05-04 06:44:00,
2015-05-04 01:59:00,67.4,62.7,30.09,South,184,0.0,0.0,85,0.00,,,0.00,Wunderground v.1.12,2015-05-04 06:59:00,
2015-05-04 02:00:00,67.4,62.7,30.09,N/A,-737280,0.0,0.0,85,0.00,,,0.00,Wunderground v.1.12,2015-05-04 07:00:00,
2015-05-04 02:09:00,67.2,62.9,30.09,South,184,0.0,0.0,86,0.00,,,0.00,Wunderground v.1.12,2015-05-04 07:09:00,
2015-05-04 02:14:00,67.1,62.8,30.09,South,184,0.0,0.0,86,0.00,,,0.00,Wunderground v.1.12,2015-05-04 07:14:00,
2015-05-04 02:24:00,66.9,62.6,30.09,SE,129,0.0,0.0,86,0.00,,,0.00,Wunderground v.1.12,2015-05-04 07:24:00,
2015-05-04 02:29:00,67.0,63.0,30.09,SE,126,0.0,0.0,87,0.00,,,0.00,Wunderground v.1.12,2015-05-04 07:29:00,
2015-05-04 02:34:00,67.2,63.2,30.09,SE,126,0.0,0.0,87,0.00,,,0.00,Wunderground v.1.12,2015-05-04 07:34:00,
2015-05-04 02:44:00,67.3,63.6,30.09,SE,126,0.0,0.0,88,0.00,,,0.00,Wunderground v.1.12,2015-05-04 07:44:00,
2015-05-04 02:54:00,67.5,64.1,30.08,SE,126,0.0,0.0,89,0.00,,,0.00,Wunderground v.1.12,2015-05-04 07:54:00,
2015-05-04 02:59:00,67.5,64.1,30.08,N/A,-737280,0.0,0.0,89,0.00,,,0.00,Wunderground v.1.12,2015-05-04 07:59:00,
2015-05-04 03:09:00,67.5,64.5,30.08,ESE,119,0.0,0.0,90,0.00,,,0.00,Wunderground v.1.12,2015-05-04 08:09:00,
2015-05-04 03:14:00,67.5,64.5,30.08,ESE,119,0.0,0.0,90,0.00,,,0.00,Wunderground v.1.12,2015-05-04 08:14:00,
2015-05-04 03:19:00,67.5,64.5,30.08,N/A,-737280,0.0,0.0,90,0.00,,,0.00,Wunderground v.1.12,2015-05-04 08:19:00,
2015-05-04 03:29:00,67.4,64.4,30.08,ENE,59,0.0,0.0,90,0.00,,,0.00,Wunderground v.1.12,2015-05-04 08:29:00,
2015-05-04 03:34:00,67.3,64.3,30.08,ENE,59,0.0,0.0,90,0.00,,,0.00,Wunderground v.1.12,2015-05-04 08:34:00,
2015-05-04 03:35:00,67.3,64.3,30.08,N/A,-737280,0.0,0.0,90,0.00,,,0.00,Wunderground v.1.12,2015-05-04 08:35:00,
2015-05-04 03:39:00,67.2,64.2,30.08,ENE,59,0.0,0.0,90,0.00,,,0.00,Wunderground v.1.12,2015-05-04 08:39:00,
2015-05-04 03:49:00,67.1,64.4,30.08,ENE,59,0.0,0.0,91,0.00,,,0.00,Wunderground v.1.12,2015-05-04 08:49:00,
2015-05-04 03:54:00,67.0,64.3,30.08,ENE,59,0.0,0.0,91,0.00,,,0.00,Wunderground v.1.12,2015-05-04 08:54:00,
2015-05-04 03:59:00,67.0,64.3,30.08,N/A,-737280,0.0,0.0,91,0.00,,,0.00,Wunderground v.1.12,2015-05-04 08:59:00,
2015-05-04 04:09:00,66.8,64.1,30.08,ENE,59,0.0,0.0,91,0.00,,,0.00,Wunderground v.1.12,2015-05-04 09:09:00,
2015-05-04 04:19:00,66.8,64.1,30.08,N/A,-737280,0.0,0.0,91,0.00,,,0.00,Wunderground v.1.12,2015-05-04 09:19:00,
2015-05-04 04:24:00,66.8,64.4,30.08,ENE,74,0.0,0.0,92,0.00,,,0.00,Wunderground v.1.12,2015-05-04 09:24:00,
2015-05-04 04:29:00,67.1,64.7,30.08,ENE,73,0.0,0.0,92,0.00,,,0.00,Wunderground v.1.12,2015-05-04 09:29:00,
2015-05-04 04:39:00,67.2,64.8,30.09,East,101,1.0,1.0,92,0.00,,,0.00,Wunderground v.1.12,2015-05-04 09:39:00,
2015-05-04 04:44:00,67.2,64.8,30.09,ENE,76,0.0,1.0,92,0.00,,,0.00,Wunderground v.1.12,2015-05-04 09:44:00,
2015-05-04 04:49:00,67.2,64.8,30.09,East,90,0.0,4.0,92,0.00,,,0.00,Wunderground v.1.12,2015-05-04 09:49:00,
2015-05-04 05:00:00,67.0,64.0,30.09,ESE,109,1.0,1.0,90,0.00,,,0.00,Wunderground v.1.12,2015-05-04 10:00:00,
2015-05-04 05:09:00,67.0,63.3,30.09,East,81,0.0,0.0,88,0.00,,,0.00,Wunderground v.1.12,2015-05-04 10:09:00,
2015-05-04 05:14:00,67.0,63.0,30.09,East,79,1.0,1.0,87,0.00,,,0.00,Wunderground v.1.12,2015-05-04 10:14:00,
2015-05-04 05:24:00,67.2,62.9,30.09,ENE,64,1.0,1.0,86,0.00,,,0.00,Wunderground v.1.12,2015-05-04 10:24:00,
2015-05-04 05:29:00,67.3,62.6,30.09,ESE,121,0.0,0.0,85,0.00,,,0.00,Wunderground v.1.12,2015-05-04 10:29:00,
2015-05-04 05:39:00,67.2,62.9,30.09,East,92,1.0,2.0,86,0.00,,,0.00,Wunderground v.1.12,2015-05-04 10:39:00,
2015-05-04 05:44:00,67.1,62.4,30.09,ENE,59,2.0,2.0,85,0.00,,,0.00,Wunderground v.1.12,2015-05-04 10:44:00,
2015-05-04 05:49:00,67.0,62.3,30.10,East,87,3.0,3.0,85,0.00,,,0.00,Wunderground v.1.12,2015-05-04 10:49:00,
2015-05-04 05:59:00,66.8,62.1,30.10,ENE,61,2.0,3.0,85,0.00,,,0.00,Wunderground v.1.12,2015-05-04 10:59:00,
2015-05-04 06:09:00,66.8,62.1,30.10,East,90,2.0,5.0,85,0.00,,,0.00,Wunderground v.1.12,2015-05-04 11:09:00,
2015-05-04 06:19:00,66.7,61.4,30.11,East,80,3.0,6.0,83,0.00,,,0.00,Wunderground v.1.12,2015-05-04 11:19:00,
2015-05-04 06:24:00,66.8,61.5,30.11,ENE,74,3.0,3.0,83,0.00,,,0.00,Wunderground v.1.12,2015-05-04 11:24:00,
2015-05-04 06:29:00,66.9,61.6,30.11,NE,55,3.0,3.0,83,0.00,,,0.00,Wunderground v.1.12,2015-05-04 11:29:00,
2015-05-04 06:34:00,66.8,61.5,30.11,East,90,3.0,7.0,83,0.00,,,0.00,Wunderground v.1.12,2015-05-04 11:34:00,
2015-05-04 06:39:00,67.1,62.1,30.12,ENE,67,3.0,3.0,84,0.00,,,0.00,Wunderground v.1.12,2015-05-04 11:39:00,
2015-05-04 06:49:00,67.1,62.1,30.12,East,90,2.0,5.0,84,0.00,,,0.00,Wunderground v.1.12,2015-05-04 11:49:00,
2015-05-04 06:54:00,67.6,62.6,30.12,ENE,67,2.0,4.0,84,0.00,,,0.00,Wunderground v.1.12,2015-05-04 11:54:00,
2015-05-04 06:59:00,67.8,62.4,30.12,East,101,3.0,4.0,83,0.00,,,0.00,Wunderground v.1.12,2015-05-04 11:59:00,
2015-05-04 07:09:00,68.2,62.8,30.13,ENE,58,2.0,3.0,83,0.00,,,0.00,Wunderground v.1.12,2015-05-04 12:09:00,
2015-05-04 07:19:00,68.2,62.8,30.13,ESE,113,3.0,8.0,83,0.00,,,0.00,Wunderground v.1.12,2015-05-04 12:19:00,
2015-05-04 07:24:00,68.7,63.0,30.14,ENE,76,3.0,3.0,82,0.00,,,0.00,Wunderground v.1.12,2015-05-04 12:24:00,
2015-05-04 07:29:00,68.8,63.1,30.14,ENE,71,3.0,3.0,82,0.00,,,0.00,Wunderground v.1.12,2015-05-04 12:29:00,
2015-05-04 07:34:00,68.7,63.0,30.14,ENE,68,3.0,7.0,82,0.00,,,0.00,Wunderground v.1.12,2015-05-04 12:34:00,
2015-05-04 07:39:00,69.3,63.6,30.15,East,87,3.0,3.0,82,0.00,,,0.00,Wunderground v.1.12,2015-05-04 12:39:00,
2015-05-04 07:44:00,69.5,63.8,30.15,East,90,2.0,2.0,82,0.00,,,0.00,Wunderground v.1.12,2015-05-04 12:44:00,
2015-05-04 07:54:00,70.0,64.2,30.15,East,91,3.0,3.0,82,0.00,,,0.00,Wunderground v.1.12,2015-05-04 12:54:00,
2015-05-04 07:59:00,70.3,64.2,30.15,East,91,2.0,4.0,81,0.00,,,0.00,Wunderground v.1.12,2015-05-04 12:59:00,
2015-05-04 08:09:00,70.6,64.5,30.16,ENE,77,3.0,4.0,81,0.00,,,0.00,Wunderground v.1.12,2015-05-04 13:09:00,
2015-05-04 08:14:00,70.9,64.8,30.16,ENE,65,3.0,5.0,81,0.00,,,0.00,Wunderground v.1.12,2015-05-04 13:14:00,
2015-05-04 08:19:00,70.9,64.8,30.17,ENE,68,4.0,9.0,81,0.00,,,0.00,Wunderground v.1.12,2015-05-04 13:19:00,
2015-05-04 08:24:00,71.5,65.4,30.17,NE,37,2.0,2.0,81,0.00,,,0.00,Wunderground v.1.12,2015-05-04 13:24:00,
2015-05-04 08:29:00,72.0,65.8,30.17,East,88,1.0,2.0,81,0.00,,,0.00,Wunderground v.1.12,2015-05-04 13:29:00,
2015-05-04 08:39:00,73.0,66.1,30.17,East,99,3.0,6.0,79,0.00,,,0.00,Wunderground v.1.12,2015-05-04 13:39:00,
2015-05-04 08:44:00,73.2,65.9,30.17,SE,133,5.0,5.0,78,0.00,,,0.00,Wunderground v.1.12,2015-05-04 13:44:00,
2015-05-04 08:49:00,73.3,66.0,30.17,East,90,5.0,11.0,78,0.00,,,0.00,Wunderground v.1.12,2015-05-04 13:49:00,
2015-05-04 08:54:00,73.6,65.9,30.17,SE,134,5.0,6.0,77,0.00,,,0.00,Wunderground v.1.12,2015-05-04 13:54:00,
2015-05-04 08:59:00,73.7,66.4,30.17,SE,135,6.0,11.0,78,0.00,,,0.00,Wunderground v.1.12,2015-05-04 13:59:00,
2015-05-04 09:09:00,74.0,66.7,30.18,SE,124,7.0,10.0,78,0.00,,,0.00,Wunderground v.1.12,2015-05-04 14:09:00,
2015-05-04 09:14:00,74.3,67.0,30.18,ESE,107,5.0,9.0,78,0.00,,,0.00,Wunderground v.1.12,2015-05-04 14:14:00,
2015-05-04 09:24:00,74.3,67.0,30.18,SE,135,7.0,7.0,78,0.00,,,0.00,Wunderground v.1.12,2015-05-04 14:24:00,
2015-05-04 09:29:00,74.6,67.3,30.18,SE,135,6.0,6.0,78,0.00,,,0.00,Wunderground v.1.12,2015-05-04 14:29:00,
2015-05-04 09:34:00,74.7,67.4,30.18,ESE,113,5.0,13.0,78,0.00,,,0.00,Wunderground v.1.12,2015-05-04 14:34:00,
2015-05-04 09:39:00,75.0,67.7,30.18,SSE,153,7.0,9.0,78,0.00,,,0.00,Wunderground v.1.12,2015-05-04 14:39:00,
2015-05-04 09:44:00,75.1,67.4,30.18,East,92,7.0,7.0,77,0.00,,,0.00,Wunderground v.1.12,2015-05-04 14:44:00,
2015-05-04 09:54:00,75.2,67.9,30.18,ESE,109,7.0,9.0,78,0.00,,,0.00,Wunderground v.1.12,2015-05-04 14:54:00,
2015-05-04 09:59:00,75.4,68.1,30.18,ESE,113,7.0,12.0,78,0.00,,,0.00,Wunderground v.1.12,2015-05-04 14:59:00,
2015-05-04 10:04:00,75.7,68.0,30.19,ESE,118,7.0,7.0,77,0.00,,,0.00,Wunderground v.1.12,2015-05-04 15:04:00,
2015-05-04 10:05:00,75.7,68.0,30.19,SE,135,6.0,16.0,77,0.00,,,0.00,Wunderground v.1.12,2015-05-04 15:05:00,
2015-05-04 10:14:00,76.3,68.2,30.19,South,175,6.0,6.0,76,0.00,,,0.00,Wunderground v.1.12,2015-05-04 15:14:00,
2015-05-04 10:19:00,76.4,68.3,30.19,SE,138,7.0,9.0,76,0.00,,,0.00,Wunderground v.1.12,2015-05-04 15:19:00,
2015-05-04 10:24:00,76.3,68.2,30.19,SSE,158,8.0,11.0,76,0.00,,,0.00,Wunderground v.1.12,2015-05-04 15:24:00,
2015-05-04 10:29:00,76.3,67.8,30.19,ESE,115,8.0,8.0,75,0.00,,,0.00,Wunderground v.1.12,2015-05-04 15:29:00,
2015-05-04 10:34:00,76.2,67.7,30.19,SE,135,8.0,14.0,75,0.00,,,0.00,Wunderground v.1.12,2015-05-04 15:34:00,
2015-05-04 10:44:00,76.4,67.9,30.19,SSE,159,8.0,11.0,75,0.00,,,0.00,Wunderground v.1.12,2015-05-04 15:44:00,
2015-05-04 10:49:00,76.4,67.9,30.20,SE,143,8.0,11.0,75,0.00,,,0.00,Wunderground v.1.12,2015-05-04 15:49:00,
2015-05-04 10:59:00,76.5,68.0,30.20,SE,135,7.0,16.0,75,0.00,,,0.00,Wunderground v.1.12,2015-05-04 15:59:00,
2015-05-04 11:09:00,76.5,67.6,30.20,SE,128,9.0,13.0,74,0.00,,,0.00,Wunderground v.1.12,2015-05-04 16:09:00,
2015-05-04 11:14:00,76.4,67.5,30.20,ESE,114,9.0,10.0,74,0.00,,,0.00,Wunderground v.1.12,2015-05-04 16:14:00,
2015-05-04 11:24:00,76.4,67.1,30.20,SE,128,8.0,8.0,73,0.00,,,0.00,Wunderground v.1.12,2015-05-04 16:24:00,
2015-05-04 11:29:00,76.3,67.4,30.20,SE,144,10.0,10.0,74,0.00,,,0.00,Wunderground v.1.12,2015-05-04 16:29:00,
2015-05-04 11:34:00,76.4,67.5,30.20,SE,135,9.0,15.0,74,0.00,,,0.00,Wunderground v.1.12,2015-05-04 16:34:00,